EW2748 Weather Reports


Display with metric or nautical units.
time (UTC)temp
F
wind
direction
speed
MPH
gust
MPH
rain 1hr
in
rain 24hr
in
rain mn
in
humidity
%
barometer
mb
20260904165005 94 226 0.0 2.0 0.00 0.00 0.00 58 1017.8
20260904164515 93 108 1.0 2.0 0.00 0.00 0.00 58 1018.0
20260904164008 93 206 0.0 0.0 0.00 0.00 0.00 61 1018.1
20260904163506 92 230 0.0 1.0 0.00 0.00 0.00 61 1018.2
20260904163016 92 130 0.0 2.0 0.00 0.00 0.00 61 1018.3
20260904162507 92 305 1.0 2.0 0.00 0.00 0.00 61 1018.1
20260904162004 91 344 0.0 3.0 0.00 0.00 0.00 62 1018.1
20260904161516 91 271 2.0 3.0 0.00 0.00 0.00 62 1018.2
20260904161005 91 277 0.0 2.0 0.00 0.00 0.00 65 1018.2
20260904160506 90 170 0.0 1.0 0.00 0.00 0.00 65 1018.3
20260904160016 90 288 0.0 1.0 0.00 0.00 0.00 64 1018.3
20260904155509 90 302 0.0 2.0 0.00 0.00 0.00 66 1018.2
20260904155010 90 125 0.0 2.0 0.00 0.00 0.00 66 1018.3
20260904154531 90 250 0.0 2.0 0.00 0.00 0.00 67 1018.2
20260904154010 89 96 0.0 2.0 0.00 0.00 0.00 66 1018.3
20260904153509 89 197 0.0 1.0 0.00 0.00 0.00 68 1018.4
20260904153011 89 219 0.0 1.0 0.00 0.00 0.00 69 1018.4
20260904152507 89 113 0.0 1.0 0.00 0.00 0.00 67 1018.2
20260904152009 88 187 0.0 1.0 0.00 0.00 0.00 66 1018.2
20260904151517 88 307 0.0 1.0 0.00 0.00 0.00 68 1018.2
20260904151004 88 136 0.0 1.0 0.00 0.00 0.00 69 1018.2
20260904150508 88 105 0.0 1.0 0.00 0.00 0.00 70 1018.2
20260904150018 87 100 0.0 2.0 0.00 0.00 0.00 70 1018.2
20260904145508 87 279 0.0 2.0 0.00 0.00 0.00 69 1018.2
20260904145011 87 316 0.0 1.0 0.00 0.00 0.00 71 1018.1
20260904144519 87 124 0.0 1.0 0.00 0.00 0.00 71 1018.0
20260904144008 86 247 0.0 1.0 0.00 0.00 0.00 71 1017.9
20260904143504 86 247 0.0 1.0 0.00 0.00 0.00 72 1017.9
20260904143021 86 98 0.0 1.0 0.00 0.00 0.00 74 1018.0
20260904142510 86 98 0.0 1.0 0.00 0.00 0.00 72 1018.0
20260904142007 85 103 0.0 1.0 0.00 0.00 0.00 73 1017.9
20260904141516 85 86 0.0 1.0 0.00 0.00 0.00 74 1018.0
20260904141009 84 145 0.0 2.0 0.00 0.00 0.00 73 1017.9
20260904140508 84 148 0.0 2.0 0.00 0.00 0.00 75 1018.0
20260904140014 84 167 0.0 2.0 0.00 0.00 0.00 75 1018.0
20260904135508 84 91 1.0 2.0 0.00 0.00 0.00 75 1018.0
20260904135008 84 144 0.0 1.0 0.00 0.00 0.00 75 1018.0
20260904134520 84 128 0.0 1.0 0.00 0.00 0.00 77 1018.0
20260904134007 83 147 0.0 2.0 0.00 0.00 0.00 79 1018.0
20260904133510 83 85 0.0 2.0 0.00 0.00 0.00 79 1018.0
20260904133032 83 93 0.0 2.0 0.00 0.00 0.00 79 1018.0
20260904132506 83 133 1.0 2.0 0.00 0.00 0.00 79 1018.1
20260904132010 82 98 1.0 2.0 0.00 0.00 0.00 80 1018.1
20260904131523 82 96 0.0 0.0 0.00 0.00 0.00 81 1018.0
20260904131012 81 94 0.0 0.0 0.00 0.00 0.00 82 1018.0
20260904130505 80 101 0.0 0.0 0.00 0.00 0.00 85 1018.0
20260904130022 80 101 0.0 1.0 0.00 0.00 0.00 86 1017.9
20260904125508 79 106 0.0 1.0 0.00 0.00 0.00 87 1017.9
20260904125008 78 103 0.0 1.0 0.00 0.00 0.00 89 1017.8
20260904124519 78 188 0.0 0.0 0.00 0.00 0.00 91 1017.8
20260904124007 77 188 0.0 0.0 0.00 0.00 0.00 93 1017.8
20260904123509 76 188 0.0 0.0 0.00 0.00 0.00 93 1017.8
20260904123017 76 188 0.0 0.0 0.00 0.00 0.00 94 1017.8
20260904122511 76 188 0.0 0.0 0.00 0.00 0.00 94 1017.7
20260904122012 75 188 0.0 0.0 0.00 0.00 0.00 95 1017.7
20260904121528 75 188 0.0 0.0 0.00 0.00 0.00 94 1017.7
20260904121009 75 188 0.0 0.0 0.00 0.00 0.00 94 1017.6
20260904120513 75 188 0.0 0.0 0.00 0.00 0.00 94 1017.6
20260904120029 74 188 0.0 0.0 0.00 0.00 0.00 94 1017.5
20260904115506 74 188 0.0 0.0 0.00 0.00 0.00 94 1017.5
20260904115012 74 188 0.0 0.0 0.00 0.00 0.00 94 1017.5
20260904114526 74 188 0.0 0.0 0.00 0.00 0.00 94 1017.5
20260904114011 74 188 0.0 0.0 0.00 0.00 0.00 94 1017.4
20260904113510 74 188 0.0 0.0 0.00 0.00 0.00 94 1017.4
20260904113025 74 188 0.0 0.0 0.00 0.00 0.00 94 1017.3
20260904112509 74 188 0.0 0.0 0.00 0.00 0.00 94 1017.4
20260904112011 74 188 0.0 0.0 0.00 0.00 0.00 94 1017.3
20260904111527 74 188 0.0 0.0 0.00 0.00 0.00 94 1017.3
20260904111012 74 188 0.0 0.0 0.00 0.00 0.00 94 1017.3
20260904110509 75 188 0.0 0.0 0.00 0.00 0.00 94 1017.2
20260904110019 75 188 0.0 0.0 0.00 0.00 0.00 93 1017.1
20260904105512 75 188 0.0 0.0 0.00 0.00 0.00 93 1017.0
20260904105012 75 188 0.0 0.0 0.00 0.00 0.00 93 1016.8
20260904104537 75 188 0.0 0.0 0.00 0.00 0.00 94 1016.9
20260904104009 75 188 0.0 0.0 0.00 0.00 0.00 93 1016.9
20260904103514 75 188 0.0 0.0 0.00 0.00 0.00 93 1016.8
20260904103025 75 188 0.0 0.0 0.00 0.00 0.00 93 1016.7
20260904102511 75 188 0.0 0.0 0.00 0.00 0.00 93 1016.8
20260904102016 75 188 0.0 0.0 0.00 0.00 0.00 94 1016.7
20260904101536 75 188 0.0 0.0 0.00 0.00 0.00 94 1016.6
20260904101011 75 188 0.0 0.0 0.00 0.00 0.00 93 1016.7
20260904100510 75 188 0.0 0.0 0.00 0.00 0.00 93 1016.7
20260904100025 75 188 0.0 0.0 0.00 0.00 0.00 93 1016.5
20260904095514 75 188 0.0 0.0 0.00 0.00 0.00 93 1016.5
20260904095012 75 188 0.0 0.0 0.00 0.00 0.00 93 1016.4
20260904094533 75 188 0.0 0.0 0.00 0.00 0.00 92 1016.4
20260904094013 75 188 0.0 0.0 0.00 0.00 0.00 93 1016.4
20260904093517 75 188 0.0 0.0 0.00 0.00 0.00 93 1016.4
20260904093026 75 188 0.0 0.0 0.00 0.00 0.00 93 1016.3
20260904092514 75 188 0.0 0.0 0.00 0.00 0.00 92 1016.3
20260904092013 75 188 0.0 0.0 0.00 0.00 0.00 92 1016.3
20260904091527 76 188 0.0 0.0 0.00 0.00 0.00 92 1016.3
20260904091011 76 188 0.0 0.0 0.00 0.00 0.00 92 1016.3
20260904090511 76 188 0.0 0.0 0.00 0.00 0.00 92 1016.3
20260904090029 76 188 0.0 0.0 0.00 0.00 0.00 92 1016.4
20260904085508 76 188 0.0 0.0 0.00 0.00 0.00 92 1016.2
20260904085015 76 188 0.0 0.0 0.00 0.00 0.00 92 1016.2
20260904084529 76 188 0.0 0.0 0.00 0.00 0.00 92 1016.2
20260904084012 76 188 0.0 0.0 0.00 0.00 0.00 92 1016.3
20260904083512 76 188 0.0 0.0 0.00 0.00 0.00 91 1016.3
20260904083027 76 188 0.0 0.0 0.00 0.00 0.00 91 1016.2
20260904082515 76 188 0.0 0.0 0.00 0.00 0.00 91 1016.2
20260904082010 76 188 0.0 0.0 0.00 0.00 0.00 91 1016.2
20260904081526 76 188 0.0 0.0 0.00 0.00 0.00 90 1016.2
20260904081013 76 188 0.0 0.0 0.00 0.00 0.00 90 1016.2
20260904080029 77 188 0.0 0.0 0.00 0.00 0.00 90 1016.1
20260904075513 77 188 0.0 0.0 0.00 0.00 0.00 90 1016.2
20260904074521 77 188 0.0 0.0 0.00 0.00 0.00 89 1016.1
20260904074006 77 188 0.0 0.0 0.00 0.00 0.00 89 1016.1
20260904073503 77 188 0.0 0.0 0.00 0.00 0.00 90 1016.0
20260904073016 77 188 0.0 0.0 0.00 0.00 0.00 90 1016.1
20260904072511 77 188 0.0 0.0 0.00 0.00 0.00 89 1016.1
20260904072004 77 188 0.0 0.0 0.00 0.00 0.00 89 1016.1
20260904071510 77 188 0.0 0.0 0.00 0.00 0.00 90 1016.1
20260904071015 77 188 0.0 0.0 0.00 0.00 0.00 90 1016.1
20260904070516 77 188 0.0 0.0 0.00 0.00 0.00 90 1016.1
20260904070020 77 188 0.0 0.0 0.00 0.00 0.00 90 1016.2
20260904065513 77 188 0.0 0.0 0.00 0.00 0.00 89 1016.2
20260904065011 78 188 0.0 0.0 0.00 0.00 0.00 89 1016.2
20260904064507 78 188 0.0 0.0 0.00 0.00 0.00 89 1016.3
20260904064003 78 188 0.0 0.0 0.00 0.00 0.00 88 1016.3
20260904063508 78 188 0.0 0.0 0.00 0.00 0.00 88 1016.3
20260904063025 78 188 0.0 0.0 0.00 0.00 0.00 88 1016.3
20260904062505 78 188 0.0 0.0 0.00 0.00 0.00 88 1016.2
20260904062008 78 188 0.0 0.0 0.00 0.00 0.00 88 1016.3
20260904061529 78 188 0.0 0.0 0.00 0.00 0.00 87 1016.5
20260904061006 78 188 0.0 0.0 0.00 0.00 0.00 87 1016.4
20260904060506 79 188 0.0 0.0 0.00 0.00 0.00 86 1016.3
20260904060026 79 188 0.0 0.0 0.00 0.00 0.00 87 1016.4
20260904055511 79 188 0.0 0.0 0.00 0.00 0.00 86 1016.4
20260904055003 79 188 0.0 0.0 0.00 0.00 0.00 86 1016.4
20260904054520 79 188 0.0 0.0 0.00 0.00 0.00 86 1016.5
20260904054010 79 159 0.0 0.0 0.00 0.00 0.00 86 1016.4
20260904053507 79 159 0.0 0.0 0.00 0.00 0.00 86 1016.5
20260904053010 79 159 0.0 0.0 0.00 0.00 0.00 85 1016.6
20260904052510 79 159 0.0 0.0 0.00 0.00 0.00 86 1016.6
20260904052014 79 159 0.0 0.0 0.00 0.00 0.00 86 1016.5
20260904051510 79 159 0.0 0.0 0.00 0.00 0.00 85 1016.5
20260904051005 79 159 0.0 0.0 0.00 0.00 0.00 86 1016.6
20260904050509 79 159 0.0 0.0 0.00 0.00 0.00 84 1016.6
20260904050035 80 159 0.0 0.0 0.00 0.00 0.00 84 1016.6
20260904045506 80 159 0.0 0.0 0.00 0.00 0.00 85 1016.6
20260904045008 80 159 0.0 0.0 0.00 0.00 0.00 84 1016.7
20260904044526 80 159 0.0 0.0 0.00 0.00 0.00 84 1016.7
20260904044003 80 159 0.0 0.0 0.00 0.00 0.00 84 1016.6
20260904043507 80 159 0.0 0.0 0.00 0.00 0.00 84 1016.4
20260904043023 80 159 0.0 0.0 0.00 0.00 0.00 83 1016.4
20260904042512 80 159 0.0 0.0 0.00 0.00 0.00 83 1016.5
20260904042007 80 159 0.0 0.0 0.00 0.00 0.00 83 1016.7
20260904041518 80 159 0.0 0.0 0.00 0.00 0.00 83 1016.6
20260904041011 80 159 0.0 0.0 0.00 0.00 0.00 82 1016.5
20260904040504 81 159 0.0 0.0 0.00 0.00 0.00 82 1016.4
20260904040012 81 159 0.0 0.0 0.00 0.00 0.00 81 1016.6
20260904035510 81 159 0.0 0.0 0.00 0.00 0.00 81 1016.7
20260904035020 81 159 0.0 0.0 0.00 0.00 0.00 81 1016.7
20260904034510 81 159 0.0 0.0 0.00 0.00 0.00 80 1016.7
20260904034009 81 159 0.0 0.0 0.00 0.00 0.00 80 1016.7
20260904033513 81 159 0.0 0.0 0.00 0.00 0.00 80 1016.9
20260904033030 82 159 0.0 0.0 0.00 0.00 0.00 79 1017.0
20260904032506 82 159 0.0 0.0 0.00 0.00 0.00 79 1016.8
20260904032007 82 159 0.0 0.0 0.00 0.00 0.00 79 1016.7
20260904031530 82 159 0.0 0.0 0.00 0.00 0.00 78 1017.0
20260904031006 82 159 0.0 0.0 0.00 0.00 0.00 77 1017.2
20260904030507 82 159 0.0 0.0 0.00 0.00 0.00 76 1017.0
20260904030027 83 159 0.0 0.0 0.00 0.00 0.00 77 1016.8
20260904025514 83 159 0.0 0.0 0.00 0.00 0.00 76 1016.8
20260904025007 83 159 0.0 0.0 0.00 0.00 0.00 76 1017.0
20260904024523 83 159 0.0 0.0 0.00 0.00 0.00 74 1017.0
20260904024012 84 159 0.0 0.0 0.00 0.00 0.00 73 1016.8
20260904023507 84 159 0.0 0.0 0.00 0.00 0.00 74 1016.7
20260904023019 84 159 0.0 0.0 0.00 0.00 0.00 73 1016.9
20260904022510 84 159 0.0 0.0 0.00 0.00 0.00 72 1017.0
20260904022015 85 159 0.0 0.0 0.00 0.00 0.00 72 1016.7
20260904021516 85 159 0.0 0.0 0.00 0.00 0.00 71 1016.6
20260904021009 85 159 0.0 0.0 0.00 0.00 0.00 70 1016.5
20260904020514 85 159 0.0 0.0 0.00 0.00 0.00 68 1016.6
20260904020038 86 159 0.0 0.0 0.00 0.00 0.00 68 1016.7
20260904015507 86 159 0.0 0.0 0.00 0.00 0.00 68 1016.5
20260904015012 86 159 0.0 0.0 0.00 0.00 0.00 68 1016.4
20260904014531 86 159 0.0 0.0 0.00 0.00 0.00 68 1016.5
20260904014005 86 154 0.0 0.0 0.00 0.00 0.00 70 1016.6
20260904013511 86 153 0.0 0.0 0.00 0.00 0.00 70 1016.3
20260904013030 86 152 0.0 0.0 0.00 0.00 0.00 69 1016.3
20260904012517 87 152 0.0 0.0 0.00 0.00 0.00 69 1016.1
20260904012006 87 153 0.0 0.0 0.00 0.00 0.00 68 1016.3
20260904011533 87 152 0.0 1.0 0.00 0.00 0.00 67 1016.1
20260904011016 87 139 0.0 1.0 0.00 0.00 0.00 67 1016.3
20260904010508 87 148 0.0 2.0 0.00 0.00 0.00 67 1016.1
20260904010022 87 153 0.0 2.0 0.00 0.00 0.00 67 1016.1
20260904005511 87 124 0.0 2.0 0.00 0.00 0.00 68 1016.0
20260904005015 86 132 0.0 2.0 0.00 0.00 0.00 68 1016.0
20260904004517 86 154 0.0 2.0 0.00 0.00 0.00 68 1015.9
20260904004013 87 199 0.0 0.0 0.00 0.00 0.00 68 1015.7
20260904003521 87 199 0.0 0.0 0.00 0.00 0.00 68 1015.8
20260904003013 87 199 0.0 0.0 0.00 0.00 0.00 67 1015.7
20260904002514 88 199 0.0 0.0 0.00 0.00 0.00 65 1015.8
20260904002012 88 199 0.0 0.0 0.00 0.00 0.00 64 1015.6
20260904001533 88 199 0.0 0.0 0.00 0.00 0.00 63 1015.7
20260904001008 89 199 0.0 0.0 0.00 0.00 0.00 64 1015.6
20260904000511 89 199 0.0 0.0 0.00 0.00 0.00 62 1015.7
20260904000040 89 199 0.0 0.0 0.00 0.00 0.00 62 1015.6
20260903235517 90 199 0.0 0.0 0.00 0.00 0.00 61 1015.4
20260903235009 90 199 0.0 0.0 0.00 0.00 0.00 59 1015.3
20260903234528 90 199 0.0 0.0 0.00 0.00 0.00 58 1015.6
20260903234016 91 199 0.0 0.0 0.00 0.00 0.00 58 1015.6
20260903233508 91 199 0.0 0.0 0.00 0.00 0.00 57 1015.4
20260903233027 91 199 0.0 0.0 0.00 0.00 0.00 56 1015.5
20260903232515 92 199 0.0 0.0 0.00 0.00 0.00 54 1015.5
20260903232016 92 199 0.0 0.0 0.00 0.00 0.00 54 1015.6
20260903231523 92 198 0.0 1.0 0.00 0.00 0.00 54 1015.6
20260903231013 92 123 0.0 1.0 0.00 0.00 0.00 53 1015.5
20260903230513 93 136 0.0 0.0 0.00 0.00 0.00 53 1015.4
20260903230017 93 126 0.0 2.0 0.00 0.00 0.00 53 1015.5
20260903225511 93 117 0.0 2.0 0.00 0.00 0.00 51 1015.6
20260903225012 93 136 0.0 1.0 0.00 0.00 0.00 51 1015.5
20260903224540 93 94 1.0 1.0 0.00 0.00 0.00 49 1015.3
20260903224006 93 54 0.0 0.0 0.00 0.00 0.00 50 1015.4
20260903223513 94 54 0.0 1.0 0.00 0.00 0.00 51 1015.4
20260903223041 94 54 0.0 1.0 0.00 0.00 0.00 50 1015.2
20260903222518 94 54 0.0 2.0 0.00 0.00 0.00 49 1015.1
20260903222013 94 91 0.0 2.0 0.00 0.00 0.00 48 1015.3
20260903221534 94 86 0.0 3.0 0.00 0.00 0.00 48 1015.3
20260903221016 94 101 0.0 5.0 0.00 0.00 0.00 48 1015.4
20260903220508 94 106 1.0 5.0 0.00 0.00 0.00 47 1015.2
20260903220027 95 72 1.0 5.0 0.00 0.00 0.00 48 1015.2
20260903215515 95 119 1.0 7.0 0.00 0.00 0.00 48 1015.2
20260903215018 95 112 2.0 7.0 0.00 0.00 0.00 48 1015.1
20260903214524 95 143 2.0 3.0 0.00 0.00 0.00 47 1015.0
20260903214012 95 150 0.0 3.0 0.00 0.00 0.00 48 1014.9
20260903213507 95 103 0.0 3.0 0.00 0.00 0.00 49 1015.2
20260903213029 95 195 0.0 3.0 0.00 0.00 0.00 50 1015.2
20260903212510 96 122 0.0 5.0 0.00 0.00 0.00 48 1015.3
20260903212017 96 141 1.0 5.0 0.00 0.00 0.00 48 1015.2
20260903211515 96 100 0.0 5.0 0.00 0.00 0.00 48 1015.4
20260903211008 96 117 2.0 4.0 0.00 0.00 0.00 48 1015.2
20260903210512 96 95 0.0 4.0 0.00 0.00 0.00 49 1015.4
20260903210011 96 103 0.0 3.0 0.00 0.00 0.00 47 1015.4
20260903205507 96 145 0.0 4.0 0.00 0.00 0.00 49 1015.3
20260903205012 96 185 0.0 4.0 0.00 0.00 0.00 48 1015.5
20260903204533 96 163 1.0 2.0 0.00 0.00 0.00 49 1015.5
20260903204004 95 259 0.0 1.0 0.00 0.00 0.00 51 1015.5
20260903203507 95 259 0.0 2.0 0.00 0.00 0.00 52 1015.5
20260903203034 94 259 0.0 2.0 0.00 0.00 0.00 51 1015.8
20260903202505 94 263 0.0 0.0 0.00 0.00 0.00 51 1015.9
20260903202007 94 104 0.0 0.0 0.00 0.00 0.00 52 1016.0
20260903201530 95 104 0.0 3.0 0.00 0.00 0.00 50 1016.0
20260903201014 95 104 0.0 3.0 0.00 0.00 0.00 49 1016.0
20260903200507 96 90 0.0 2.0 0.00 0.00 0.00 48 1016.2
20260903200024 96 353 0.0 3.0 0.00 0.00 0.00 48 1016.2
20260903195512 96 83 0.0 3.0 0.00 0.00 0.00 48 1016.2
20260903195016 97 60 0.0 2.0 0.00 0.00 0.00 47 1016.1
20260903194529 98 277 0.0 2.0 0.00 0.00 0.00 47 1016.3
20260903194011 98 47 1.0 2.0 0.00 0.00 0.00 45 1016.4
20260903193515 99 243 0.0 4.0 0.00 0.00 0.00 43 1016.5
20260903193012 98 81 1.0 4.0 0.00 0.00 0.00 43 1016.4
20260903192509 98 243 0.0 4.0 0.00 0.00 0.00 42 1016.3
20260903192013 99 155 2.0 4.0 0.00 0.00 0.00 44 1016.6
20260903191531 99 268 0.0 3.0 0.00 0.00 0.00 43 1016.6
20260903191007 99 214 0.0 3.0 0.00 0.00 0.00 44 1016.7
20260903190512 98 141 0.0 3.0 0.00 0.00 0.00 44 1016.6
20260903190032 97 244 0.0 7.0 0.00 0.00 0.00 46 1016.6
20260903185503 97 131 3.0 7.0 0.00 0.00 0.00 46 1016.9
20260903185007 98 83 1.0 5.0 0.00 0.00 0.00 46 1017.0
20260903184528 97 111 2.0 7.0 0.00 0.00 0.00 46 1016.9
20260903184017 97 74 2.0 7.0 0.00 0.00 0.00 45 1016.9
20260903183505 97 60 1.0 4.0 0.00 0.00 0.00 47 1017.0
20260903183025 96 103 1.0 4.0 0.00 0.00 0.00 47 1017.1
20260903182512 97 88 1.0 5.0 0.00 0.00 0.00 46 1017.2
20260903182015 97 175 2.0 5.0 0.00 0.00 0.00 46 1017.2
20260903181516 97 243 0.0 5.0 0.00 0.00 0.00 47 1017.2
20260903181015 97 135 3.0 5.0 0.00 0.00 0.00 46 1017.2
20260903180514 97 122 1.0 5.0 0.00 0.00 0.00 48 1017.3
20260903180018 97 109 2.0 5.0 0.00 0.00 0.00 48 1017.6
20260903175508 97 70 2.0 5.0 0.00 0.00 0.00 48 1017.5
20260903175011 97 97 0.0 5.0 0.00 0.00 0.00 49 1017.4
20260903174531 96 63 1.0 5.0 0.00 0.00 0.00 49 1017.5
20260903174004 96 97 0.0 6.0 0.00 0.00 0.00 49 1017.7
20260903173512 96 89 1.0 6.0 0.00 0.00 0.00 48 1017.9
20260903173032 97 130 1.0 2.0 0.00 0.00 0.00 50 1017.9
20260903172506 97 278 0.0 2.0 0.00 0.00 0.00 49 1018.0
20260903172015 97 278 1.0 3.0 0.00 0.00 0.00 50 1018.0
20260903171532 97 281 0.0 3.0 0.00 0.00 0.00 50 1018.0
20260903171014 96 176 0.0 3.0 0.00 0.00 0.00 53 1018.1
20260903170958 95 127 1.0 5.0 0.00 0.00 0.00 53 1018.1
20260903170953 95 277 0.0 2.0 0.00 0.00 0.00 56 1018.2
20260903170950 94 98 1.0 2.0 0.00 0.00 0.00 56 1018.3
20260903170943 94 68 0.0 2.0 0.00 0.00 0.00 57 1018.3